Location: Ottawa
(45.4167°N, 75.7000°W)
Time: 15:47:27
(UTC-05:00)

Tiangong 2 - Pass Details

Date: 11 October 2017
Orbit: 386 x 390 km, 42.8° (Epoch: 16 December)

Event Time Altitude Azimuth Distance (km) Brightness Sun altitude
Exits shadow 04:37:43 11° 115° (ESE) 1,387 4.4 -27.9°
Drops below altitude 10° 04:37:51 10° 113° (ESE) 1,422 4.5 -27.8°
Sets 04:40:32 0° 90° (E) 2,283 6.1 -27.4°
